Location: ????????
(37.9452°N, 23.1472°E)
Time: 18:42:21
(UTC+00:00)

YAOGAN 1 - Pass Details

Date: 18 April 2024
Orbit: 612 x 614 km, 97.8° (Epoch: 27 May)

Event Time Altitude Azimuth Distance (km) Brightness Sun altitude
Rises 17:28:53 0° 176° (S) 2,866 5.7 -5.1°
Reaches altitude 10° 17:31:05 10° 180° (S) 1,966 5.0 -5.5°
Maximum altitude 17:35:18 58° 259° (W) 721 3.3 -6.3°
Drops below altitude 10° 17:39:33 10° 339° (NNW) 1,981 5.8 -7.1°
Sets 17:41:46 0° 344° (NNW) 2,890 6.6 -7.5°
